When you browse on this site, cookies collect data to enhance your experience and personalize the content and advertising you see.
Visit our Privacy Policy to learn more. By continuing to use the site, you agree to this use of cookies and data.
  • en Suisse
  • Liste des pays
  • À 7 jours
  • Température de l'eau
  • Carte météo
  • Widgets météo
  • user-avatar
    Se connecter

    Météo par heure à Budnye

    Ce jour, 18 Février, Mardi

    Heure Température Précipitation Vent Pression Humidité
    00:00 +5°C° 0 mm 3 m/s 742 mmHg 80%
    01:00 +4°C° 0 mm 3 m/s 742 mmHg 82%
    02:00 +4°C° 0 mm 3 m/s 742 mmHg 85%
    03:00 +4°C° 0 mm 3 m/s 741 mmHg 86%
    04:00 +4°C° 0 mm 3 m/s 741 mmHg 87%
    05:00 +4°C° 0 mm 4 m/s 741 mmHg 88%
    06:00 +3°C° 0 mm 3 m/s 741 mmHg 87%
    07:00 +3°C° 0 mm 3 m/s 741 mmHg 87%
    08:00 +3°C° 0 mm 3 m/s 741 mmHg 86%
    09:00 +4°C° 0 mm 4 m/s 741 mmHg 82%
    10:00 +5°C° 0 mm 4 m/s 741 mmHg 78%
    11:00 +6°C° 0 mm 5 m/s 741 mmHg 74%
    12:00 +6°C° 0.1 mm 5 m/s 741 mmHg 72%
    13:00 +5°C° 0.1 mm 6 m/s 741 mmHg 70%
    14:00 +5°C° 0.1 mm 6 m/s 741 mmHg 69%
    15:00 +4°C° 0.4 mm 6 m/s 741 mmHg 72%
    16:00 +4°C° 0.4 mm 6 m/s 741 mmHg 76%
    17:00 +3°C° 0.4 mm 6 m/s 741 mmHg 80%
    18:00 +2°C° 0 mm 5 m/s 741 mmHg 81%
    19:00 +2°C° 0 mm 5 m/s 741 mmHg 83%
    20:00 +2°C° 0 mm 5 m/s 742 mmHg 84%
    21:00 +2°C° 0.1 mm 5 m/s 742 mmHg 86%
    22:00 +2°C° 0.1 mm 6 m/s 742 mmHg 87%
    23:00 +2°C° 0.1 mm 6 m/s 742 mmHg 88%

    Demain, 19 Février, Mercredi

    Heure Température Précipitation Vent Pression Humidité
    00:00 +1°C° 0 mm 6 m/s 742 mmHg 86%
    01:00 +1°C° 0 mm 6 m/s 742 mmHg 83%
    02:00 +1°C° 0 mm 5 m/s 742 mmHg 80%
    03:00 0°C° 0 mm 5 m/s 742 mmHg 82%
    04:00 0°C° 0 mm 5 m/s 742 mmHg 84%
    05:00 -1°C° 0 mm 5 m/s 742 mmHg 85%
    06:00 -1°C° 0 mm 5 m/s 742 mmHg 88%
    07:00 -1°C° 0 mm 5 m/s 742 mmHg 91%
    08:00 -1°C° 0 mm 5 m/s 742 mmHg 95%
    09:00 -1°C° 0 mm 5 m/s 742 mmHg 89%
    10:00 0°C° 0 mm 5 m/s 742 mmHg 84%
    11:00 +1°C° 0 mm 5 m/s 742 mmHg 79%
    12:00 +1°C° 0 mm 5 m/s 742 mmHg 76%
    13:00 +2°C° 0 mm 5 m/s 742 mmHg 73%
    14:00 +2°C° 0 mm 5 m/s 742 mmHg 70%
    15:00 +2°C° 0 mm 5 m/s 742 mmHg 72%
    16:00 +3°C° 0 mm 4 m/s 741 mmHg 74%
    17:00 +3°C° 0 mm 4 m/s 741 mmHg 75%
    18:00 +2°C° 0 mm 3 m/s 741 mmHg 77%
    19:00 +2°C° 0 mm 3 m/s 741 mmHg 79%
    20:00 +2°C° 0 mm 3 m/s 741 mmHg 80%
    21:00 +1°C° 0 mm 3 m/s 741 mmHg 83%
    22:00 +1°C° 0 mm 3 m/s 741 mmHg 86%
    23:00 +1°C° 0 mm 3 m/s 741 mmHg 89%

    Après-demain, 20 Février, Jeudi

    Heure Température Précipitation Vent Pression Humidité
    00:00 +1°C° 0 mm 3 m/s 741 mmHg 89%
    01:00 +1°C° 0 mm 3 m/s 741 mmHg 89%
    02:00 +1°C° 0 mm 3 m/s 741 mmHg 89%
    03:00 +1°C° 0 mm 3 m/s 741 mmHg 90%
    04:00 +1°C° 0 mm 3 m/s 741 mmHg 90%
    05:00 0°C° 0 mm 3 m/s 741 mmHg 91%
    06:00 +1°C° 0.2 mm 3 m/s 742 mmHg 93%
    07:00 +1°C° 0.2 mm 3 m/s 742 mmHg 94%
    08:00 +1°C° 0.2 mm 3 m/s 742 mmHg 95%
    09:00 +1°C° 0.1 mm 3 m/s 743 mmHg 89%
    10:00 +2°C° 0.1 mm 3 m/s 743 mmHg 82%
    11:00 +2°C° 0.1 mm 3 m/s 744 mmHg 75%
    12:00 +3°C° 0 mm 3 m/s 744 mmHg 74%
    13:00 +3°C° 0 mm 3 m/s 744 mmHg 73%
    14:00 +3°C° 0 mm 3 m/s 745 mmHg 72%
    15:00 +2°C° 0 mm 3 m/s 745 mmHg 76%
    16:00 +3°C° 0 mm 2 m/s 745 mmHg 80%
    17:00 +3°C° 0 mm 2 m/s 745 mmHg 84%
    18:00 +3°C° 0 mm 2 m/s 746 mmHg 85%
    19:00 +2°C° 0 mm 2 m/s 746 mmHg 87%
    20:00 +2°C° 0 mm 2 m/s 746 mmHg 89%
    21:00 +1°C° 0 mm 2 m/s 746 mmHg 91%
    22:00 +1°C° 0 mm 2 m/s 746 mmHg 92%
    23:00 -1°C° 0 mm 2 m/s 746 mmHg 94%

    21 Février, Vendredi

    Heure Température Précipitation Vent Pression Humidité
    00:00 +1°C° 0 mm 2 m/s 746 mmHg 92%
    01:00 0°C° 0 mm 3 m/s 746 mmHg 91%
    02:00 0°C° 0 mm 3 m/s 746 mmHg 90%
    03:00 0°C° 0 mm 3 m/s 746 mmHg 89%
    04:00 -1°C° 0 mm 3 m/s 745 mmHg 88%
    05:00 -2°C° 0 mm 4 m/s 745 mmHg 87%
    06:00 -2°C° 0 mm 4 m/s 744 mmHg 85%
    07:00 -2°C° 0 mm 5 m/s 744 mmHg 82%
    08:00 -2°C° 0 mm 5 m/s 744 mmHg 79%
    15:00 0°C° 0.4 mm 7 m/s 741 mmHg 76%
    16:00 -1°C° 0.4 mm 6 m/s 741 mmHg 86%
    17:00 -2°C° 0.4 mm 6 m/s 741 mmHg 96%
    18:00 0°C° 0.4 mm 5 m/s 741 mmHg 95%
    19:00 0°C° 0.4 mm 4 m/s 742 mmHg 94%
    20:00 0°C° 0.4 mm 4 m/s 743 mmHg 93%
    21:00 0°C° 0 mm 4 m/s 743 mmHg 91%
    22:00 -1°C° 0 mm 4 m/s 744 mmHg 90%
    23:00 0°C° 0 mm 3 m/s 744 mmHg 88%

    22 Février, Samedi

    Heure Température Précipitation Vent Pression Humidité
    00:00 -1°C° 0 mm 4 m/s 745 mmHg 89%
    01:00 -1°C° 0 mm 4 m/s 745 mmHg 89%
    02:00 -1°C° 0 mm 4 m/s 746 mmHg 89%
    03:00 -1°C° 0 mm 4 m/s 746 mmHg 89%
    04:00 -1°C° 0 mm 4 m/s 746 mmHg 89%
    05:00 0°C° 0 mm 4 m/s 746 mmHg 89%
    06:00 -1°C° 0 mm 4 m/s 746 mmHg 90%
    07:00 -1°C° 0 mm 4 m/s 747 mmHg 91%
    08:00 -1°C° 0 mm 3 m/s 747 mmHg 92%
    09:00 -1°C° 0 mm 4 m/s 747 mmHg 89%
    10:00 0°C° 0 mm 5 m/s 747 mmHg 86%
    11:00 +1°C° 0 mm 5 m/s 747 mmHg 82%
    12:00 +1°C° 0 mm 6 m/s 746 mmHg 79%
    13:00 0°C° 0 mm 7 m/s 746 mmHg 77%
    14:00 +2°C° 0 mm 7 m/s 745 mmHg 74%
    15:00 +2°C° 0 mm 7 m/s 745 mmHg 75%
    16:00 0°C° 0 mm 7 m/s 744 mmHg 77%
    17:00 0°C° 0 mm 7 m/s 743 mmHg 79%
    18:00 0°C° 0.1 mm 8 m/s 742 mmHg 83%
    19:00 0°C° 0.1 mm 8 m/s 742 mmHg 86%
    20:00 0°C° 0.1 mm 9 m/s 741 mmHg 90%
    21:00 0°C° 0.4 mm 9 m/s 740 mmHg 88%
    22:00 0°C° 0.4 mm 9 m/s 739 mmHg 87%
    23:00 +1°C° 0.4 mm 9 m/s 738 mmHg 85%

    23 Février, Dimanche

    Heure Température Précipitation Vent Pression Humidité
    00:00 +1°C° 0.1 mm 9 m/s 737 mmHg 85%
    01:00 +2°C° 0.1 mm 9 m/s 736 mmHg 84%
    02:00 +2°C° 0.1 mm 9 m/s 735 mmHg 84%
    03:00 +2°C° 0.7 mm 9 m/s 734 mmHg 86%
    04:00 +2°C° 0.7 mm 8 m/s 734 mmHg 88%
    05:00 +2°C° 0.7 mm 8 m/s 733 mmHg 90%
    06:00 +2°C° 0.9 mm 8 m/s 733 mmHg 88%
    07:00 +1°C° 0.9 mm 8 m/s 732 mmHg 85%
    08:00 +1°C° 0.9 mm 8 m/s 732 mmHg 83%
    09:00 +1°C° 0.2 mm 9 m/s 732 mmHg 77%
    10:00 +1°C° 0.2 mm 9 m/s 732 mmHg 71%
    11:00 +2°C° 0.2 mm 10 m/s 732 mmHg 65%
    12:00 +2°C° 0.2 mm 10 m/s 733 mmHg 62%
    13:00 +2°C° 0.2 mm 10 m/s 733 mmHg 59%
    14:00 +2°C° 0.2 mm 9 m/s 733 mmHg 56%
    15:00 +1°C° 0 mm 9 m/s 734 mmHg 58%
    16:00 +1°C° 0 mm 8 m/s 734 mmHg 60%
    17:00 +2°C° 0 mm 7 m/s 734 mmHg 62%
    18:00 0°C° 0 mm 7 m/s 735 mmHg 68%
    19:00 0°C° 0 mm 7 m/s 735 mmHg 75%
    20:00 -1°C° 0 mm 7 m/s 735 mmHg 81%
    21:00 -1°C° 0 mm 8 m/s 735 mmHg 82%
    22:00 -1°C° 0 mm 8 m/s 735 mmHg 84%
    23:00 -1°C° 0 mm 8 m/s 735 mmHg 86%
    Voir plus